Flag for U.S.A. Weather past 2 weeks in Ann Arbor, Michigan, U.S.A.

Now
40 °F

Overcast.


Feels Like: 40 °F
Forecast: 36 / 50 °F
Wind: No wind

Location: Ann Arbor Municipal Airport

Current Time: Mar 30, 2015 at 11:19:29 PM

Latest Report: Mar 30, 2015 at 10:53 PM


Visibility: 10 mi

Pressure: 29.96 "Hg

Humidity: 63%

Dew point: 28 °F

Location of Ann ArborLocation

Historic Weather in Ann Arbor — Graph

°F

Ann Arbor temperature yesterday

Maximum temperature yesterday: 44 °F (at 3:53 PM)
Minimum temperature yesterday: 13 °F (at 3:53 AM)
Average temperature yesterday: 30 °F

Past Weeks' High & Low Weather Summary

 TemperatureHumidityPressure
High64 °F (Mar 16, 3:53 PM)96% (Mar 16, 6:53 AM)30.37 "Hg (Mar 16, 6:53 AM)
Low13 °F (Mar 29, 3:53 AM)24% (Mar 17, 11:53 AM)29.73 "Hg (Mar 16, 11:53 PM)
Average35 °F59%30.12 "Hg
* Reported Mar 15 9:53 PM — Mar 30 9:53 PM, Ann Arbor, Weather by CustomWeather, © 2015

Note: Actual official high and low records may vary slightly from our data, if they occured in-between our weather recording intervals... More about our weather records

Advertising

Ann Arbor weather history for previous 24 hours

 ConditionsComfort  
Time TempWeatherWind HumidityBarometerVisibility
9:53 PM
Mon, Mar 30
41 °FPartly cloudy.No wind55%29.97 "Hg10 mi
8:53 PM47 °FPassing clouds.5 mph41%29.95 "Hg10 mi
7:53 PM50 °FSunny.9 mph33%29.94 "Hg10 mi
6:53 PM52 °FSunny.15 mph28%29.93 "Hg10 mi
5:53 PM55 °FSunny.21 mph25%29.91 "Hg10 mi
4:53 PM56 °FSunny.26 mph24%29.90 "Hg10 mi
3:53 PM57 °FSunny.29 mph24%29.90 "Hg10 mi
2:53 PM57 °FScattered clouds.28 mph28%29.90 "Hg10 mi
1:53 PM55 °FPassing clouds.25 mph30%29.91 "Hg10 mi
12:53 PM54 °FPassing clouds.23 mph29%29.92 "Hg10 mi
11:53 AM51 °FSunny.22 mph35%29.94 "Hg10 mi
10:53 AM48 °FSunny.18 mph43%29.94 "Hg10 mi
9:53 AM44 °FSunny.17 mph53%29.92 "Hg10 mi
8:53 AM40 °FSunny.15 mph65%29.92 "Hg10 mi
7:53 AM37 °FClear.13 mph73%29.90 "Hg10 mi
6:53 AM36 °FPassing clouds.9 mph75%29.88 "Hg10 mi
5:53 AM38 °FPassing clouds.13 mph76%29.85 "Hg10 mi
4:53 AM39 °FPassing clouds.14 mph73%29.83 "Hg10 mi
3:53 AM40 °FOvercast.14 mph70%29.82 "Hg10 mi
3:02 AM41 °FMostly cloudy.16 mph67%29.80 "Hg10 mi
2:53 AM41 °FMostly cloudy.18 mph67%29.81 "Hg10 mi
1:53 AM42 °FMostly cloudy.16 mph68%29.79 "Hg10 mi
12:53 AM42 °FOvercast.24 mph73%29.77 "Hg10 mi
11:53 PM
Sun, Mar 29
39 °FOvercast.15 mph76%29.76 "Hg10 mi
Weather by CustomWeather, © 2015

See weather overviewHow to use our weather pages